CW2931 Weather Reports


Display with metric or nautical units.
time (UTC)temp
F
wind
direction
speed
MPH
gust
MPH
rain 1hr
in
rain 24hr
in
rain mn
in
humidity
%
barometer
mb
20260504231105 76 208 4.0 7.0 0.00 0.00 0.00 47 998.1
20260504230604 76 212 3.0 10.0 0.00 0.00 0.00 47 998.2
20260504225604 76 220 5.0 12.0 0.00 0.00 0.00 46 998.2
20260504224604 77 194 3.0 12.0 0.00 0.00 0.00 45 998.1
20260504223104 78 216 0.0 0.0 0.00 0.00 0.00 45 998.2
20260504222604 78 205 0.0 0.0 0.00 0.00 0.00 46 998.2
20260504222104 77 202 0.0 0.0 0.00 0.00 0.00 46 998.4
20260504221604 77 196 0.0 0.0 0.00 0.00 0.00 46 998.6
20260504221104 78 211 0.0 0.0 0.00 0.00 0.00 46 998.6
20260504220604 78 224 0.0 0.0 0.00 0.00 0.00 45 998.6
20260504220104 78 229 0.0 0.0 0.00 0.00 0.00 45 998.7
20260504215604 77 250 0.0 0.0 0.00 0.00 0.00 45 998.8
20260504215105 77 220 0.0 0.0 0.00 0.00 0.00 45 998.8
20260504214604 77 268 0.0 0.0 0.00 0.00 0.00 44 998.8
20260504214104 77 237 0.0 0.0 0.00 0.00 0.00 43 999.0
20260504213604 78 256 0.0 0.0 0.00 0.00 0.00 43 999.0
20260504213104 77 229 0.0 0.0 0.00 0.00 0.00 43 999.1
20260504212104 76 242 0.0 0.0 0.00 0.00 0.00 43 999.3
20260504211604 76 214 0.0 0.0 0.00 0.00 0.00 42 999.3
20260504210605 77 229 0.0 0.0 0.00 0.00 0.00 40 999.4
20260504210104 77 192 0.0 0.0 0.00 0.00 0.00 40 999.6
20260504205604 77 228 0.0 9.0 0.00 0.00 0.00 40 999.7
20260504204604 77 241 12.0 21.0 0.00 0.00 0.00 38 999.8
20260504203604 76 226 7.0 15.0 0.00 0.00 0.00 38 999.8
20260504203106 76 220 10.0 20.0 0.00 0.00 0.00 37 999.9
20260504202104 77 221 9.0 17.0 0.00 0.00 0.00 36 999.9
20260504201605 77 230 6.0 20.0 0.00 0.00 0.00 37 999.9
20260504201105 77 179 8.0 20.0 0.00 0.00 0.00 35 1000.0
20260504200604 78 249 7.0 16.0 0.00 0.00 0.00 35 999.9
20260504200104 77 218 7.0 14.0 0.00 0.00 0.00 35 1000.0
20260504195604 77 237 6.0 23.0 0.00 0.00 0.00 34 1000.1
20260504195105 77 214 10.0 22.0 0.00 0.00 0.00 34 1000.2
20260504194104 78 240 11.0 17.0 0.00 0.00 0.00 33 1000.3
20260504193604 77 210 10.0 18.0 0.00 0.00 0.00 32 1000.3
20260504193104 78 217 10.0 23.0 0.00 0.00 0.00 31 1000.3
20260504192604 78 215 10.0 17.0 0.00 0.00 0.00 30 1000.4
20260504192104 78 203 9.0 17.0 0.00 0.00 0.00 31 1000.4
20260504191604 78 231 10.0 17.0 0.00 0.00 0.00 30 1000.4
20260504185604 77 254 9.0 17.0 0.00 0.00 0.00 31 1000.5
20260504185104 77 253 10.0 21.0 0.00 0.00 0.00 31 1000.6
20260504184604 77 252 6.0 17.0 0.00 0.00 0.00 31 1000.6
20260504184104 77 217 9.0 17.0 0.00 0.00 0.00 30 1000.9
20260504183604 77 238 7.0 22.0 0.00 0.00 0.00 31 1001.0
20260504182604 76 250 6.0 16.0 0.00 0.00 0.00 32 1001.0
20260504182104 76 269 6.0 17.0 0.00 0.00 0.00 33 1001.0
20260504181604 76 209 12.0 26.0 0.00 0.00 0.00 31 1001.1
20260504181104 76 202 9.0 17.0 0.00 0.00 0.00 31 1001.1
20260504180604 76 244 10.0 20.0 0.00 0.00 0.00 34 1001.0
20260504175603 76 242 6.0 15.0 0.00 0.00 0.00 36 1001.3
20260504175103 76 231 8.0 17.0 0.00 0.00 0.00 36 1001.5
20260504174604 75 215 6.0 20.0 0.00 0.00 0.00 36 1001.6
20260504174104 75 230 7.0 16.0 0.00 0.00 0.00 38 1001.6
20260504173604 75 245 6.0 12.0 0.00 0.00 0.00 38 1001.7
20260504172604 74 228 10.0 20.0 0.00 0.00 0.00 38 1001.9
20260504171604 74 207 9.0 17.0 0.00 0.00 0.00 40 1002.1
20260504171104 74 211 7.0 21.0 0.00 0.00 0.00 41 1002.1
20260504170604 74 210 5.0 14.0 0.00 0.00 0.00 43 1002.1
20260504170103 73 234 0.0 0.0 0.00 0.00 0.00 45 1002.2
20260504160104 70 233 0.0 0.0 0.00 0.00 0.00 50 1003.2
20260504150604 66 258 0.0 0.0 0.00 0.00 0.00 54 1003.5
20260504150104 66 215 0.0 0.0 0.00 0.00 0.00 56 1003.5
20260504140604 62 229 0.0 0.0 0.00 0.00 0.00 60 1003.9
20260504140104 62 259 0.0 0.0 0.00 0.00 0.00 60 1003.9
20260504130606 58 237 0.0 0.0 0.00 0.00 0.00 65 1004.5
20260504120103 54 221 0.0 0.0 0.00 0.00 0.00 71 1005.0
20260504110103 52 201 0.0 0.0 0.00 0.00 0.00 72 1004.9
20260504100604 52 242 0.0 0.0 0.00 0.00 0.00 69 1004.5
20260504100104 53 237 0.0 0.0 0.00 0.00 0.00 69 1004.5
20260504090104 53 210 0.0 0.0 0.00 0.00 0.00 67 1004.8
20260504081604 53 223 0.0 0.0 0.00 0.00 0.00 66 1005.1
20260504081104 53 243 0.0 0.0 0.00 0.00 0.00 66 1005.1
20260504080604 53 236 0.0 0.0 0.00 0.00 0.00 66 1005.2
20260504080103 53 209 0.0 0.0 0.00 0.00 0.00 66 1005.3
20260504070104 53 197 0.0 0.0 0.00 0.00 0.00 66 1005.9
20260504060104 53 206 0.0 0.0 0.00 0.00 0.00 66 1006.9
20260504050606 53 185 0.0 0.0 0.00 0.00 0.00 64 1007.8
20260504050106 53 236 0.0 0.0 0.00 0.00 0.00 64 1007.8
20260504045605 53 197 0.0 0.0 0.00 0.00 0.00 64 1007.8
20260504044605 54 191 0.0 0.0 0.00 0.00 0.00 63 1007.9
20260504044105 54 179 0.0 0.0 0.00 0.00 0.00 63 1007.9
20260504043606 54 193 0.0 0.0 0.00 0.00 0.00 63 1007.9
20260504043105 54 178 0.0 0.0 0.00 0.00 0.00 63 1008.0
20260504042605 54 209 0.0 0.0 0.00 0.00 0.00 63 1008.1
20260504042106 54 218 0.0 0.0 0.00 0.00 0.00 63 1008.2
20260504041605 54 196 0.0 0.0 0.00 0.00 0.00 62 1008.2
20260504041106 54 179 0.0 0.0 0.00 0.00 0.00 63 1008.2
20260504040606 54 195 0.0 0.0 0.00 0.00 0.00 62 1008.3
20260504040105 54 217 0.0 0.0 0.00 0.00 0.00 62 1008.3
20260504035605 54 192 0.0 0.0 0.00 0.00 0.00 63 1008.3
20260504035106 54 211 0.0 0.0 0.00 0.00 0.00 63 1008.4
20260504034605 54 213 0.0 0.0 0.00 0.00 0.00 63 1008.4
20260504033605 54 192 0.0 0.0 0.00 0.00 0.00 64 1008.6
20260504033105 53 187 0.0 0.0 0.00 0.00 0.00 65 1008.6
20260504032605 53 194 0.0 0.0 0.00 0.00 0.00 65 1008.8
20260504032105 53 194 0.0 0.0 0.00 0.00 0.00 65 1008.8
20260504031605 53 203 0.0 0.0 0.00 0.00 0.00 65 1008.8
20260504030605 53 190 0.0 0.0 0.00 0.00 0.00 65 1008.9
20260504030106 53 207 0.0 0.0 0.00 0.00 0.00 65 1009.0
20260504025605 53 185 0.0 0.0 0.00 0.00 0.00 65 1009.0
20260504025105 53 163 0.0 0.0 0.00 0.00 0.00 65 1009.0
20260504024106 53 180 0.0 0.0 0.00 0.00 0.00 64 1009.1
20260504023606 54 233 0.0 0.0 0.00 0.00 0.00 64 1009.1
20260504023105 54 195 0.0 0.0 0.00 0.00 0.00 64 1009.1
20260504022105 54 184 0.0 0.0 0.00 0.00 0.00 63 1009.1
20260504021606 54 188 0.0 0.0 0.00 0.00 0.00 63 1009.2
20260504021105 54 201 0.0 0.0 0.00 0.00 0.00 63 1009.2
20260504020606 54 228 0.0 0.0 0.00 0.00 0.00 63 1009.3
20260504020105 55 220 0.0 0.0 0.00 0.00 0.00 62 1009.3
20260504015606 55 195 0.0 0.0 0.00 0.00 0.00 62 1009.3
20260504015105 55 198 0.0 0.0 0.00 0.00 0.00 62 1009.2
20260504014605 55 220 0.0 0.0 0.00 0.00 0.00 62 1009.1
20260504014106 55 215 0.0 0.0 0.00 0.00 0.00 61 1009.2
20260504013606 55 206 0.0 0.0 0.00 0.00 0.00 61 1009.2
20260504012605 56 227 0.0 0.0 0.00 0.00 0.00 60 1009.2
20260504012105 56 238 0.0 0.0 0.00 0.00 0.00 60 1009.2
20260504011605 56 217 0.0 0.0 0.00 0.00 0.00 60 1009.2
20260504011106 56 229 0.0 0.0 0.00 0.00 0.00 59 1009.2
20260504010605 56 215 0.0 0.0 0.00 0.00 0.00 59 1009.3
20260504010105 56 221 0.0 0.0 0.00 0.00 0.00 58 1009.4
20260504005605 56 225 0.0 0.0 0.00 0.00 0.00 58 1009.4
20260504004105 57 225 0.0 0.0 0.00 0.00 0.00 56 1009.5
20260504003605 57 199 0.0 0.0 0.00 0.00 0.00 56 1009.5
20260504003105 57 234 0.0 0.0 0.00 0.00 0.00 55 1009.4
20260504002605 57 237 0.0 0.0 0.00 0.00 0.00 55 1009.5
20260504002105 58 223 0.0 0.0 0.00 0.00 0.00 54 1009.4
20260504001605 58 231 0.0 0.0 0.00 0.00 0.00 54 1009.3
20260504001105 59 219 0.0 0.0 0.00 0.00 0.00 53 1009.4
20260504000605 59 236 0.0 0.0 0.00 0.00 0.00 53 1009.3
20260504000105 59 219 0.0 0.0 0.00 0.00 0.00 53 1009.2
20260503235606 60 214 0.0 0.0 0.00 0.00 0.00 52 1009.1
20260503235105 60 242 0.0 0.0 0.00 0.00 0.00 51 1009.0
20260503234605 61 224 0.0 0.0 0.00 0.00 0.00 49 1009.0
20260503234105 61 221 0.0 0.0 0.00 0.00 0.00 46 1008.9
20260503233105 62 233 0.0 0.0 0.00 0.00 0.00 44 1008.7
20260503232605 62 244 0.0 0.0 0.00 0.00 0.00 43 1008.7
20260503232105 62 221 0.0 0.0 0.00 0.00 0.00 42 1008.8